SCP
0 0 0 0 0 0 0 0 0 0 0 0 0 0 0 0 0 0 0 0 0 0 0 0 0 0 0 0 0 0 0 0 1 1 1 0 1 1
0 0 0 0 0 0 0 0 0 0 0 0 0 0 0 0 0 0 0 0 0 0 0 0 0 0 0 0 0 0 0 0 0 1 1 1 0 1
0 0 0 0 0 0 0 0 0 0 0 0 0 0 0 0 0 0 0 0 0 0 0 0 0 0 0 0 0 0 0 0 0 0 0 0 0 0
0 0 0 0 0 0 0 0 0 0 0 0 0 0 0 0 0 0 0 0 0 0 0 0 0 0 0 0 0 0 0 0 0 0 0 0 0 0
0 0 0 0 0 0 0 0 0 0 0 0 0 0 0 0 0 0 0 0 0 0 0 0 0 0 0 0 0 0 0 0 0 0 0 0 0 0
0 0 0 0 0 0 0 0 0 0 0 0 0 0 0 0 0 0 0 0 0 0 0 0 0 0 0 0 0 0 0 0 0 0 0 0 0 0
0 0 0 0 0 0 0 0 0 0 0 0 0 0 0 0 0 0 0 0 0 0 0 0 0 0 0 0 0 0 0 0 0 0 0 0 0 0
0 0 0 0 0 0 0 0 0 0 0 0 0 0 0 0 0 0 0 0 0 0 0 0 0 0 0 0 0 0 0 0 0 0 0 0 0 0
0 0 0 0 0 0 0 0 0 0 0 0 0 0 0 0 0 0 0 0 0 0 0 0 0 0 0 0 0 0 0 0 0 0 0 0 0 0
0 0 0 0 0 0 0 0 0 0 0 0 0 0 0 0 0 0 0 0 0 0 0 0 0 0 0 0 0 0 0 0 0 0 0 0 0 0
0 0 0 0 0 0 0 0 0 0 0 0 0 0 0 0 0 0 0 0 0 0 0 0 0 0 0 0 0 0 0 0 0 0 0 0 0 0
0 0 0 0 0 0 0 0 0 0 0 0 0 0 0 0 0 0 0 0 0 0 0 0 0 0 0 0 0 0 0 0 0 0 0 0 0 0
0 0 0 0 0 0 0 0 0 0 0 0 0 0 0 0 0 0 0 0 0 0 0 0 0 0 0 0 0 0 0 0 0 0 0 0 0 0
0 0 0 0 0 0 0 0 0 0 0 0 0 0 0 0 0 0 0 0 0 0 0 0 0 0 0 0 0 0 0 0 0 0 0 0 0 0
0 0 0 0 0 0 0 0 0 0 0 0 0 0 0 0 0 0 0 0 0 0 0 0 0 0 0 0 0 0 0 0 0 0 0 0 0 0
0 0 0 0 0 0 0 0 0 0 0 0 0 0 0 0 0 0 0 0 0 0 0 0 0 0 0 0 0 0 0 0 0 0 0 0 0 0
0 0 0 0 0 0 0 0 0 0 0 0 0 0 0 0 0 0 0 0 0 0 0 0 0 0 0 0 0 0 0 0 0 0 0 0 0 0
0 0 0 0 0 0 0 0 0 0 0 0 0 0 0 0 0 0 0 0 0 0 0 0 0 0 0 0 0 0 0 0 0 0 0 0 0 0
0 0 0 0 0 0 0 0 0 0 0 0 0 0 0 0 0 0 0 0 0 0 0 0 0 0 0 0 0 0 0 0 0 0 0 0 0 0
0 0 0 0 0 0 0 0 0 0 0 0 0 0 0 0 0 0 0 0 0 0 0 0 0 0 0 0 0 0 0 0 0 0 0 0 0 0
0 0 0 0 0 0 0 0 0 0 0 0 0 0 0 0 0 0 0 0 0 0 0 0 0 0 0 0 0 0 0 0 0 0 0 0 0 0
0 0 0 0 0 0 0 0 0 0 0 0 0 0 0 0 0 0 0 0 0 0 0 0 0 0 0 0 0 0 0 0 0 0 0 0 0 0
0 0 0 0 0 0 0 0 0 0 0 0 0 0 0 0 0 0 0 0 0 0 0 0 0 0 0 0 0 0 0 0 0 0 0 0 0 0
Wind_Speed
3 3 3 2 2 2 2 2 3 5 4 2 1 2 2 2 4 3 4 7 8 8 9 9 9 10 10 11 12 12 12 12 12 12 13 13 13 13
1 1 1 1 1 1 1 1 2 3 4 2 1 2 3 3 5 4 4 7 7 9 9 9 9 10 10 11 11 12 12 13 13 13 13 13 13 13
1 1 1 0 1 1 1 1 1 2 4 3 2 2 3 4 4 4 4 4 5 8 9 9 10 10 11 11 12 12 12 12 13 13 13 13 13 14
1 1 1 1 1 1 1 1 1 1 3 4 3 3 3 4 4 4 4 4 5 8 9 9 10 11 12 12 12 12 12 12 12 13 13 13 13 14
1 1 1 1 1 1 1 1 1 1 1 2 3 3 3 3 4 4 4 4 5 7 9 9 10 11 12 12 12 12 11 12 12 12 12 12 13 13
1 1 0 0 1 1 0 1 1 1 1 1 2 2 3 3 3 4 5 4 5 5 6 8 10 11 11 12 12 12 11 12 12 12 12 12 13 13
2 2 2 2 2 2 1 1 1 1 1 1 2 2 3 4 4 4 6 6 5 2 5 5 6 5 6 9 10 11 12 12 12 12 12 12 12 12
2 2 3 2 3 4 4 3 2 1 1 2 2 3 4 4 4 4 5 5 6 3 4 6 4 5 5 5 10 12 12 12 12 12 13 13 12 12
2 2 2 2 2 2 4 4 4 4 3 2 2 3 4 4 4 5 5 5 6 5 5 6 4 5 5 7 13 13 12 12 13 13 13 13 12 12
3 2 2 2 2 2 2 3 3 3 3 2 2 3 3 3 3 4 5 6 6 4 3 5 5 5 6 6 10 12 12 13 13 14 13 13 13 13
3 3 2 2 3 4 3 2 3 3 4 5 4 4 6 6 5 3 3 4 5 4 2 3 5 7 6 5 6 11 13 14 14 14 13 13 14 13
2 2 2 3 4 4 3 2 2 2 3 4 4 5 5 5 6 3 3 3 4 4 3 3 4 5 6 4 5 6 7 11 14 13 14 14 14 8
2 1 1 4 4 5 4 2 2 2 2 3 3 3 4 4 4 4 4 3 4 4 4 4 4 4 4 6 6 5 5 6 7 9 11 13 13 10
1 1 2 4 5 5 4 4 5 4 2 2 2 3 4 4 5 5 5 5 4 6 6 5 4 4 5 6 7 6 6 6 6 7 7 10 11 12
2 3 4 5 5 4 6 6 4 3 2 2 2 3 3 4 4 4 5 5 5 5 4 4 5 5 5 6 7 7 8 7 5 6 7 7 7 7
3 3 5 6 5 5 4 4 3 3 2 2 2 3 3 3 3 4 4 5 5 5 5 5 5 5 5 6 6 7 6 6 7 7 7 7 7 6
4 2 2 2 2 2 3 3 2 3 2 2 2 3 3 3 4 4 3 3 3 5 7 6 6 5 5 6 6 6 6 6 7 8 8 8 8 7
5 2 2 1 1 1 1 2 2 2 3 3 2 3 3 3 4 4 4 3 4 5 6 6 7 7 5 3 4 5 5 6 7 8 7 7 9 8
3 2 1 1 0 0 1 1 2 2 2 2 2 3 3 3 3 4 4 4 4 5 5 5 6 5 7 8 6 5 6 7 7 7 7 7 8 9
1 2 1 1 0 0 0 1 1 1 2 2 2 2 2 3 3 3 4 4 5 5 6 5 5 5 5 6 7 8 10 7 7 8 8 8 7 10
1 0 0 0 0 0 0 1 1 1 1 2 2 2 2 2 3 3 4 5 4 5 6 6 7 8 6 4 5 7 7 9 10 8 8 8 8 7
1 0 0 0 1 0 1 1 1 1 1 1 2 2 2 2 3 4 4 4 4 5 6 7 7 6 4 5 7 8 9 9 10 12 10 8 6 6
1 1 1 1 1 1 1 1 1 1 1 2 2 2 2 2 2 3 3 3 4 5 6 7 7 6 5 5 6 7 9 10 8 8 8 11 13 11
Wind_Direction
226 227 235 249 250 250 251 241 251 271 274 271 287 344 341 347 352 344 341 346 342 340 337 334 332 331 327 325 322 320 318 317 315 312 310 309 307 306
207 207 232 264 280 289 274 276 256 256 270 284 292 337 345 347 349 344 340 343 339 340 339 337 339 338 334 330 325 321 319 318 316 314 313 311 310 307
203 200 235 247 255 274 273 277 274 261 265 283 305 329 336 339 341 341 338 332 327 332 332 335 336 336 334 331 329 326 323 322 318 316 315 313 312 309
192 179 244 266 259 276 273 274 279 275 260 274 297 322 324 330 332 331 333 331 322 328 331 332 333 334 330 327 326 324 322 322 319 316 315 313 311 309
177 173 222 225 263 283 286 287 294 311 292 273 291 310 314 333 332 326 323 326 324 324 326 329 331 329 325 324 323 321 319 317 316 315 314 313 312 310
87 89 60 270 269 274 304 307 310 326 328 305 296 309 313 322 330 324 325 330 319 322 326 325 323 323 323 323 320 317 316 315 315 316 316 315 314 313
79 67 58 52 45 43 48 0 345 333 332 318 309 317 322 334 331 326 317 318 307 313 319 316 314 312 315 316 314 312 314 313 314 316 314 312 312 311
96 77 66 66 57 56 54 47 39 9 315 300 301 309 315 321 322 322 319 324 312 322 320 305 304 301 304 302 309 313 312 312 313 315 314 313 311 310
95 87 64 49 63 68 62 54 37 28 12 318 305 304 313 321 321 318 318 307 290 301 312 297 304 299 304 307 309 308 313 316 315 314 312 309 309 310
86 86 83 57 48 62 69 58 42 30 17 357 331 326 332 337 332 314 305 298 289 291 306 290 305 303 307 301 304 312 318 317 315 314 312 310 311 310
81 78 87 76 61 70 74 61 32 13 21 22 14 5 2 357 355 348 333 331 310 305 324 303 305 311 304 299 311 323 322 317 314 313 312 313 315 314
80 70 72 70 67 71 74 80 48 2 357 359 7 3 357 352 355 347 323 311 306 297 327 326 307 326 313 303 316 321 317 314 316 317 315 315 317 316
101 68 57 70 75 72 69 54 45 32 5 5 359 355 353 351 348 342 332 312 297 283 301 318 301 310 294 302 309 313 315 318 318 314 312 313 315 315
117 81 69 77 75 70 61 51 52 53 32 14 4 352 346 343 338 334 329 322 305 291 293 300 285 290 294 296 297 309 317 313 311 310 313 313 313 311
100 97 86 80 74 63 51 50 46 40 35 17 348 334 331 327 330 331 331 326 316 311 310 310 304 299 287 284 289 299 310 312 310 318 320 319 315 312
92 86 87 82 71 59 46 40 33 28 20 355 332 328 332 334 333 334 330 333 328 321 326 328 317 310 301 292 288 294 300 301 313 316 315 314 313 309
111 86 68 62 46 33 27 22 18 18 15 355 344 337 339 338 333 336 332 333 327 321 325 330 328 318 298 290 292 294 301 308 313 317 320 317 314 314
109 110 99 77 58 26 10 356 359 1 356 351 346 340 334 329 326 330 334 331 322 319 321 323 329 331 329 308 287 295 309 314 316 318 317 315 313 316
105 119 129 137 167 358 345 326 324 337 346 348 343 336 329 325 324 327 329 330 324 318 318 322 328 337 333 324 313 326 323 317 318 319 318 313 307 310
93 133 155 177 192 206 310 318 323 334 339 337 333 326 321 320 321 321 319 319 318 318 319 324 330 331 318 303 300 308 320 319 318 315 315 313 304 307
94 103 142 189 214 205 250 282 280 291 306 314 310 309 312 317 312 311 312 316 319 317 318 319 317 315 305 305 303 305 312 323 324 315 315 315 316 318
146 177 232 223 216 223 240 253 279 291 299 301 299 303 307 304 301 304 310 315 314 312 311 310 315 320 321 316 309 309 314 322 328 331 329 321 315 311
197 208 219 229 233 229 232 244 255 268 272 281 291 300 304 302 297 299 304 310 313 315 317 318 322 325 321 314 309 311 315 321 326 330 328 332 328 317